Time,TemperatureF,DewpointF,PressureIn,WindDirection,WindDirectionDegrees,WindSpeedMPH,WindSpeedGustMPH,Humidity,HourlyPrecipIn,Conditions,Clouds,dailyrainin,SolarRadiationWatts/m^2,SoftwareType,DateUTC
2013-02-07 00:01:00,36.0,25.0,-100.00,SSE,161,4.0,11.0,63,0.00,,,0.00,0.000000,,2013-02-07 08:01:00,
2013-02-07 00:11:00,36.0,25.0,-100.00,SSE,161,4.0,11.0,63,0.00,,,0.00,0.000000,,2013-02-07 08:11:00,
2013-02-07 00:32:00,36.0,23.0,-100.00,SSW,200,6.0,12.0,59,0.00,,,0.00,0.000000,,2013-02-07 08:32:00,
2013-02-07 00:42:00,36.0,23.0,-100.00,SSW,200,6.0,12.0,59,0.00,,,0.00,0.000000,,2013-02-07 08:42:00,
2013-02-07 00:52:00,36.0,23.0,-100.00,SSW,200,6.0,12.0,59,0.00,,,0.00,0.000000,,2013-02-07 08:52:00,
2013-02-07 01:01:00,36.0,23.0,-100.00,SSW,200,6.0,12.0,59,0.00,,,0.00,0.000000,,2013-02-07 09:01:00,
2013-02-07 01:11:00,36.0,23.0,-100.00,SSW,200,6.0,12.0,59,0.00,,,0.00,0.000000,,2013-02-07 09:11:00,
2013-02-07 01:32:00,35.0,23.0,-100.00,SSW,202,6.0,14.0,62,0.00,,,0.00,0.000000,,2013-02-07 09:32:00,
2013-02-07 01:42:00,35.0,23.0,-100.00,SSW,202,6.0,14.0,62,0.00,,,0.00,0.000000,,2013-02-07 09:42:00,
2013-02-07 01:52:00,35.0,23.0,-100.00,SSW,202,6.0,14.0,62,0.00,,,0.00,0.000000,,2013-02-07 09:52:00,
2013-02-07 02:01:00,35.0,23.0,-100.00,SSW,202,6.0,14.0,62,0.00,,,0.00,0.000000,,2013-02-07 10:01:00,
2013-02-07 02:11:00,35.0,23.0,-100.00,SSW,202,6.0,14.0,62,0.00,,,0.00,0.000000,,2013-02-07 10:11:00,
2013-02-07 02:32:00,35.0,25.0,-100.00,SSW,212,8.0,17.0,66,0.00,,,0.00,0.000000,,2013-02-07 10:32:00,
2013-02-07 02:42:00,35.0,25.0,-100.00,SSW,212,8.0,17.0,66,0.00,,,0.00,0.000000,,2013-02-07 10:42:00,
2013-02-07 02:52:00,35.0,25.0,-100.00,SSW,212,8.0,17.0,66,0.00,,,0.00,0.000000,,2013-02-07 10:52:00,
2013-02-07 03:01:00,35.0,25.0,-100.00,SSW,212,8.0,17.0,66,0.00,,,0.00,0.000000,,2013-02-07 11:01:00,
2013-02-07 03:11:00,35.0,25.0,-100.00,SSW,212,8.0,17.0,66,0.00,,,0.00,0.000000,,2013-02-07 11:11:00,
2013-02-07 03:32:00,33.0,27.0,-100.00,SW,219,5.0,14.0,79,0.00,,,0.00,0.000000,,2013-02-07 11:32:00,
2013-02-07 03:44:00,33.0,27.0,-100.00,SW,219,5.0,14.0,79,0.00,,,0.00,0.000000,,2013-02-07 11:44:00,
2013-02-07 03:52:00,33.0,27.0,-100.00,SW,219,5.0,14.0,79,0.00,,,0.00,0.000000,,2013-02-07 11:52:00,
2013-02-07 04:01:00,33.0,27.0,-100.00,SW,219,5.0,14.0,79,0.00,,,0.00,0.000000,,2013-02-07 12:01:00,
2013-02-07 04:11:00,33.0,27.0,-100.00,SW,219,5.0,14.0,79,0.00,,,0.00,0.000000,,2013-02-07 12:11:00,
2013-02-07 04:33:00,32.0,23.0,-100.00,WSW,249,4.0,11.0,68,0.00,,,0.00,0.000000,,2013-02-07 12:33:00,
2013-02-07 04:42:00,32.0,23.0,-100.00,WSW,249,4.0,11.0,68,0.00,,,0.00,0.000000,,2013-02-07 12:42:00,
2013-02-07 04:53:00,32.0,23.0,-100.00,WSW,249,4.0,11.0,68,0.00,,,0.00,0.000000,,2013-02-07 12:53:00,
2013-02-07 05:02:00,32.0,23.0,-100.00,WSW,249,4.0,11.0,68,0.00,,,0.00,0.000000,,2013-02-07 13:02:00,
2013-02-07 05:11:00,32.0,23.0,-100.00,WSW,249,4.0,11.0,68,0.00,,,0.00,0.000000,,2013-02-07 13:11:00,
2013-02-07 05:32:00,31.0,26.0,-100.00,South,184,2.0,4.0,80,0.00,,,0.00,0.000000,,2013-02-07 13:32:00,
2013-02-07 05:42:00,31.0,26.0,-100.00,South,184,2.0,4.0,80,0.00,,,0.00,0.000000,,2013-02-07 13:42:00,
2013-02-07 05:52:00,31.0,26.0,-100.00,South,184,2.0,4.0,80,0.00,,,0.00,0.000000,,2013-02-07 13:52:00,
2013-02-07 06:01:00,31.0,26.0,-100.00,South,184,2.0,4.0,80,0.00,,,0.00,0.000000,,2013-02-07 14:01:00,
2013-02-07 06:11:00,31.0,26.0,-100.00,South,184,2.0,4.0,80,0.00,,,0.00,0.000000,,2013-02-07 14:11:00,
2013-02-07 06:32:00,29.0,26.0,-100.00,South,178,3.0,9.0,88,0.00,,,0.00,0.000000,,2013-02-07 14:32:00,
2013-02-07 06:42:00,29.0,26.0,-100.00,South,178,3.0,9.0,88,0.00,,,0.00,0.000000,,2013-02-07 14:42:00,
2013-02-07 06:52:00,29.0,26.0,-100.00,South,178,3.0,9.0,88,0.00,,,0.00,0.000000,,2013-02-07 14:52:00,
2013-02-07 07:01:00,29.0,26.0,-100.00,South,178,3.0,9.0,88,0.00,,,0.00,0.000000,,2013-02-07 15:01:00,
2013-02-07 07:11:00,29.0,26.0,-100.00,South,178,3.0,9.0,88,0.00,,,0.00,0.000000,,2013-02-07 15:11:00,
2013-02-07 07:32:00,27.0,25.0,-100.00,SW,215,3.0,7.0,92,0.00,,,0.00,0.000000,,2013-02-07 15:32:00,
2013-02-07 07:42:00,27.0,25.0,-100.00,SW,215,3.0,7.0,92,0.00,,,0.00,0.000000,,2013-02-07 15:42:00,
2013-02-07 07:52:00,27.0,25.0,-100.00,SW,215,3.0,7.0,92,0.00,,,0.00,0.000000,,2013-02-07 15:52:00,
2013-02-07 08:01:00,27.0,25.0,-100.00,SW,215,3.0,7.0,92,0.00,,,0.00,0.000000,,2013-02-07 16:01:00,
2013-02-07 08:11:00,27.0,25.0,-100.00,SW,215,3.0,7.0,92,0.00,,,0.00,0.000000,,2013-02-07 16:11:00,
2013-02-07 08:32:00,28.0,24.0,-100.00,WSW,244,4.0,7.0,85,0.00,,,0.00,32.000000,,2013-02-07 16:32:00,
2013-02-07 08:42:00,28.0,24.0,-100.00,WSW,244,4.0,7.0,85,0.00,,,0.00,32.000000,,2013-02-07 16:42:00,
2013-02-07 08:52:00,28.0,24.0,-100.00,WSW,244,4.0,7.0,85,0.00,,,0.00,32.000000,,2013-02-07 16:52:00,
2013-02-07 09:01:00,28.0,24.0,-100.00,WSW,244,4.0,7.0,85,0.00,,,0.00,32.000000,,2013-02-07 17:01:00,
2013-02-07 09:11:00,28.0,24.0,-100.00,WSW,244,4.0,7.0,85,0.00,,,0.00,32.000000,,2013-02-07 17:11:00,
2013-02-07 09:43:00,31.0,17.0,-100.00,SW,232,5.0,10.0,56,0.00,,,0.00,81.000000,,2013-02-07 17:43:00,
2013-02-07 09:52:00,31.0,17.0,-100.00,SW,232,5.0,10.0,56,0.00,,,0.00,81.000000,,2013-02-07 17:52:00,
2013-02-07 10:01:00,31.0,17.0,-100.00,SW,232,5.0,10.0,56,0.00,,,0.00,81.000000,,2013-02-07 18:01:00,
2013-02-07 10:32:00,33.0,23.0,-100.00,NE,46,4.0,9.0,67,0.00,,,0.00,232.000000,,2013-02-07 18:32:00,
2013-02-07 10:42:00,33.0,23.0,-100.00,NE,46,4.0,9.0,67,0.00,,,0.00,232.000000,,2013-02-07 18:42:00,
2013-02-07 10:52:00,33.0,23.0,-100.00,NE,46,4.0,9.0,67,0.00,,,0.00,232.000000,,2013-02-07 18:52:00,
2013-02-07 11:01:00,33.0,23.0,-100.00,NE,46,4.0,9.0,67,0.00,,,0.00,232.000000,,2013-02-07 19:01:00,
2013-02-07 11:11:00,33.0,23.0,-100.00,NE,46,4.0,9.0,67,0.00,,,0.00,232.000000,,2013-02-07 19:11:00,
2013-02-07 11:42:00,37.0,20.0,-100.00,SSE,149,3.0,9.0,50,0.00,,,0.00,371.000000,,2013-02-07 19:42:00,
2013-02-07 11:52:00,37.0,20.0,-100.00,SSE,149,3.0,9.0,50,0.00,,,0.00,371.000000,,2013-02-07 19:52:00,
2013-02-07 12:01:00,37.0,20.0,-100.00,SSE,149,3.0,9.0,50,0.00,,,0.00,371.000000,,2013-02-07 20:01:00,
2013-02-07 12:11:00,37.0,20.0,-100.00,SSE,149,3.0,9.0,50,0.00,,,0.00,371.000000,,2013-02-07 20:11:00,
2013-02-07 12:32:00,38.0,12.0,-100.00,WNW,284,5.0,11.0,34,0.00,,,0.00,451.000000,,2013-02-07 20:32:00,
2013-02-07 12:42:00,38.0,12.0,-100.00,WNW,284,5.0,11.0,34,0.00,,,0.00,451.000000,,2013-02-07 20:42:00,
2013-02-07 12:52:00,38.0,12.0,-100.00,WNW,284,5.0,11.0,34,0.00,,,0.00,451.000000,,2013-02-07 20:52:00,
2013-02-07 13:01:00,38.0,12.0,-100.00,WNW,284,5.0,11.0,34,0.00,,,0.00,451.000000,,2013-02-07 21:01:00,
2013-02-07 13:42:00,40.0,15.0,-100.00,West,271,8.0,14.0,35,0.00,,,0.00,589.000000,,2013-02-07 21:42:00,
2013-02-07 13:52:00,40.0,15.0,-100.00,West,271,8.0,14.0,35,0.00,,,0.00,589.000000,,2013-02-07 21:52:00,
2013-02-07 14:01:00,40.0,15.0,-100.00,West,271,8.0,14.0,35,0.00,,,0.00,589.000000,,2013-02-07 22:01:00,
2013-02-07 14:11:00,40.0,15.0,-100.00,West,271,8.0,14.0,35,0.00,,,0.00,589.000000,,2013-02-07 22:11:00,
2013-02-07 14:32:00,36.0,20.0,-100.00,North,1,5.0,13.0,52,0.00,,,0.00,379.000000,,2013-02-07 22:32:00,
2013-02-07 14:42:00,36.0,20.0,-100.00,North,1,5.0,13.0,52,0.00,,,0.00,379.000000,,2013-02-07 22:42:00,
2013-02-07 14:52:00,36.0,20.0,-100.00,North,1,5.0,13.0,52,0.00,,,0.00,379.000000,,2013-02-07 22:52:00,
2013-02-07 15:01:00,36.0,20.0,-100.00,North,1,5.0,13.0,52,0.00,,,0.00,379.000000,,2013-02-07 23:01:00,
2013-02-07 15:11:00,36.0,20.0,-100.00,North,1,5.0,13.0,52,0.00,,,0.00,379.000000,,2013-02-07 23:11:00,
2013-02-07 15:42:00,38.0,13.0,-100.00,NNW,341,3.0,10.0,35,0.00,,,0.00,247.000000,,2013-02-07 23:42:00,
2013-02-07 15:52:00,38.0,13.0,-100.00,NNW,341,3.0,10.0,35,0.00,,,0.00,247.000000,,2013-02-07 23:52:00,
2013-02-07 16:01:00,38.0,13.0,-100.00,NNW,341,3.0,10.0,35,0.00,,,0.00,247.000000,,2013-02-08 00:01:00,
2013-02-07 16:11:00,38.0,13.0,-100.00,NNW,341,3.0,10.0,35,0.00,,,0.00,247.000000,,2013-02-08 00:11:00,
2013-02-07 17:52:00,34.0,18.0,-100.00,NNE,20,3.0,10.0,51,0.00,,,0.00,105.000000,,2013-02-08 01:52:00,
2013-02-07 18:01:00,34.0,18.0,-100.00,NNE,20,3.0,10.0,51,0.00,,,0.00,105.000000,,2013-02-08 02:01:00,
2013-02-07 18:11:00,34.0,18.0,-100.00,NNE,20,3.0,10.0,51,0.00,,,0.00,105.000000,,2013-02-08 02:11:00,
2013-02-07 18:42:00,31.0,17.0,-100.00,NNW,331,3.0,6.0,56,0.00,,,0.00,1.000000,,2013-02-08 02:42:00,
2013-02-07 18:52:00,31.0,17.0,-100.00,NNW,331,3.0,6.0,56,0.00,,,0.00,1.000000,,2013-02-08 02:52:00,
2013-02-07 19:01:00,31.0,17.0,-100.00,NNW,331,3.0,6.0,56,0.00,,,0.00,1.000000,,2013-02-08 03:01:00,
2013-02-07 19:12:00,31.0,17.0,-100.00,NNW,331,3.0,6.0,56,0.00,,,0.00,1.000000,,2013-02-08 03:12:00,
2013-02-07 19:32:00,27.0,18.0,-100.00,West,276,3.0,5.0,69,0.00,,,0.00,0.000000,,2013-02-08 03:32:00,
2013-02-07 19:42:00,27.0,18.0,-100.00,West,276,3.0,5.0,69,0.00,,,0.00,0.000000,,2013-02-08 03:42:00,
2013-02-07 19:52:00,27.0,18.0,-100.00,West,276,3.0,5.0,69,0.00,,,0.00,0.000000,,2013-02-08 03:52:00,
2013-02-07 20:01:00,27.0,18.0,-100.00,West,276,3.0,5.0,69,0.00,,,0.00,0.000000,,2013-02-08 04:01:00,
2013-02-07 20:11:00,27.0,18.0,-100.00,West,276,3.0,5.0,69,0.00,,,0.00,0.000000,,2013-02-08 04:11:00,
2013-02-07 20:32:00,26.0,18.0,-100.00,WNW,286,4.0,6.0,71,0.00,,,0.00,0.000000,,2013-02-08 04:32:00,
2013-02-07 20:42:00,26.0,18.0,-100.00,WNW,286,4.0,6.0,71,0.00,,,0.00,0.000000,,2013-02-08 04:42:00,
2013-02-07 20:52:00,26.0,18.0,-100.00,WNW,286,4.0,6.0,71,0.00,,,0.00,0.000000,,2013-02-08 04:52:00,
2013-02-07 21:01:00,26.0,18.0,-100.00,WNW,286,4.0,6.0,71,0.00,,,0.00,0.000000,,2013-02-08 05:01:00,
2013-02-07 21:11:00,26.0,18.0,-100.00,WNW,286,4.0,6.0,71,0.00,,,0.00,0.000000,,2013-02-08 05:11:00,
2013-02-07 21:32:00,26.0,19.0,-100.00,NW,318,5.0,10.0,73,0.00,,,0.00,0.000000,,2013-02-08 05:32:00,
2013-02-07 21:42:00,26.0,19.0,-100.00,NW,318,5.0,10.0,73,0.00,,,0.00,0.000000,,2013-02-08 05:42:00,
2013-02-07 21:52:00,26.0,19.0,-100.00,NW,318,5.0,10.0,73,0.00,,,0.00,0.000000,,2013-02-08 05:52:00,
2013-02-07 22:01:00,26.0,19.0,-100.00,NW,318,5.0,10.0,73,0.00,,,0.00,0.000000,,2013-02-08 06:01:00,
2013-02-07 22:11:00,26.0,19.0,-100.00,NW,318,5.0,10.0,73,0.00,,,0.00,0.000000,,2013-02-08 06:11:00,
2013-02-07 22:32:00,27.0,20.0,-100.00,NW,315,5.0,9.0,74,0.00,,,0.00,0.000000,,2013-02-08 06:32:00,
2013-02-07 22:42:00,27.0,20.0,-100.00,NW,315,5.0,9.0,74,0.00,,,0.00,0.000000,,2013-02-08 06:42:00,
2013-02-07 22:52:00,27.0,20.0,-100.00,NW,315,5.0,9.0,74,0.00,,,0.00,0.000000,,2013-02-08 06:52:00,
2013-02-07 23:01:00,27.0,20.0,-100.00,NW,315,5.0,9.0,74,0.00,,,0.00,0.000000,,2013-02-08 07:01:00,
2013-02-07 23:11:00,27.0,20.0,-100.00,NW,315,5.0,9.0,74,0.00,,,0.00,0.000000,,2013-02-08 07:11:00,
2013-02-07 23:32:00,28.0,22.0,-100.00,NW,325,5.0,10.0,78,0.00,,,0.00,0.000000,,2013-02-08 07:32:00,
2013-02-07 23:42:00,28.0,22.0,-100.00,NW,325,5.0,10.0,78,0.00,,,0.00,0.000000,,2013-02-08 07:42:00,
2013-02-07 23:52:00,28.0,22.0,-100.00,NW,325,5.0,10.0,78,0.00,,,0.00,0.000000,,2013-02-08 07:52:00,